Snowfall_Accumulation
0.1 0.2 0.2 0.1 0.1 0.3 0.4 0.4 1.1 1.1 0.2 0.1 0.1 0.1 0.1 0.1 0.1 0.1 0.1 0.1 0.0 0.0 0.1 0.1 0.1 0.1 0.1 0.1 0.1 0.1 0.1 0.1 0.1 0.1 0.0 0.0 0.0 0.0
0.2 0.4 0.2 0.2 0.1 0.2 0.3 0.3 0.7 1.2 1.0 0.1 0.1 0.0 0.0 0.1 0.1 0.1 0.1 0.1 0.1 0.1 0.0 0.1 0.1 0.1 0.1 0.1 0.2 0.2 0.1 0.1 0.1 0.1 0.1 0.1 0.0 0.0
0.3 0.4 0.4 0.3 0.3 0.3 0.3 0.4 0.5 0.9 1.3 0.5 0.2 0.1 0.1 0.2 0.1 0.0 0.0 0.1 0.1 0.1 0.1 0.1 0.2 0.2 0.3 0.3 0.3 0.2 0.2 0.2 0.2 0.1 0.1 0.1 0.1 0.1
0.4 0.4 0.4 0.4 0.5 0.5 0.4 0.4 0.5 0.7 1.2 1.3 0.6 0.6 0.6 0.3 0.2 0.2 0.1 0.1 0.1 0.1 0.1 0.1 0.3 0.4 0.4 0.5 0.5 0.4 0.4 0.3 0.3 0.2 0.2 0.2 0.2 0.1
0.5 0.6 0.6 0.6 0.7 0.9 0.6 0.6 0.7 0.7 1.0 1.6 1.2 1.0 0.9 0.7 0.5 0.5 0.4 0.1 0.0 0.0 0.1 0.1 0.2 0.4 0.8 0.6 0.6 0.5 0.6 0.5 0.4 0.3 0.3 0.3 0.2 0.2
0.5 0.6 0.7 1.0 1.1 1.1 1.2 1.2 1.1 1.5 1.7 1.9 1.9 1.9 1.7 1.1 1.0 1.0 0.9 0.7 0.3 0.2 0.1 0.2 0.3 0.3 0.3 0.3 0.3 0.4 0.4 0.6 0.7 0.6 0.6 0.6 0.5 0.4
0.7 0.8 1.0 1.2 1.2 1.3 1.6 2.2 2.3 2.8 3.1 3.8 3.7 2.8 1.6 1.4 1.2 1.0 1.6 1.4 1.1 0.5 0.7 0.5 0.5 0.4 0.5 0.1 0.2 0.2 0.5 0.7 0.7 0.7 0.9 0.9 0.8 0.6
1.5 1.4 1.3 1.4 1.3 1.4 1.3 1.6 2.7 4.3 5.5 5.7 4.3 2.8 1.6 1.0 1.2 1.5 2.3 2.9 2.3 0.8 1.2 0.7 0.5 0.7 0.7 0.3 0.4 0.5 0.6 0.8 0.9 1.0 1.1 1.1 1.0 0.9
2.1 2.2 2.2 1.7 1.6 1.4 1.4 1.6 1.8 2.5 3.4 3.9 3.8 2.3 1.5 1.5 2.4 3.4 3.3 3.7 3.0 1.5 1.7 1.7 1.0 1.0 0.8 0.8 0.5 0.5 0.4 0.6 0.9 1.2 1.2 1.3 1.2 1.1
2.3 2.0 1.8 1.5 1.4 1.8 2.2 2.8 2.1 1.5 1.1 1.3 1.7 1.6 1.6 1.5 2.6 4.1 4.1 3.6 2.1 1.1 1.3 2.7 1.5 1.4 1.5 1.0 0.9 0.6 0.8 0.9 1.4 1.7 1.7 1.6 1.4 1.5
1.6 1.2 1.2 1.2 1.3 2.5 3.8 4.3 2.2 1.1 0.8 1.1 1.5 1.7 1.7 1.9 2.2 4.3 5.5 5.8 5.3 2.3 1.4 2.6 2.2 2.1 1.7 1.8 1.0 1.0 0.9 1.4 1.1 1.2 1.4 1.3 1.3 1.4
1.1 0.7 0.7 1.1 1.9 3.2 4.1 4.4 3.8 2.0 1.9 1.3 1.0 0.9 1.2 1.0 1.1 2.7 5.1 8.7 8.1 5.5 1.8 2.9 3.4 4.1 5.5 2.5 1.5 1.3 1.3 1.0 1.4 1.3 0.9 1.1 1.4 1.7
1.9 1.2 0.7 1.4 2.6 3.3 3.4 3.4 3.6 3.6 3.2 2.8 2.1 1.9 1.9 1.8 1.3 1.4 3.0 7.1 10.5 8.0 3.0 6.1 7.9 6.3 8.8 5.6 2.7 2.0 1.9 1.9 1.5 1.5 1.7 1.8 2.1 3.3
3.1 2.1 1.9 2.5 2.8 2.5 2.4 2.3 3.1 3.5 3.6 3.6 3.2 2.9 2.5 2.7 2.5 2.3 2.6 3.2 4.8 5.9 3.9 7.1 13.0 9.9 12.0 9.9 5.6 4.0 3.5 2.9 2.9 3.5 3.2 3.2 3.6 3.5
2.9 2.8 3.0 3.1 2.8 2.4 2.1 2.2 2.4 3.2 3.9 4.4 4.2 3.4 3.0 3.1 3.0 3.0 2.8 2.7 3.2 3.2 3.1 4.1 8.6 9.8 12.3 12.9 8.4 5.1 4.9 4.7 4.1 5.0 4.7 4.8 4.7 4.6
3.0 2.6 2.4 2.2 2.4 2.4 2.3 2.8 2.7 3.4 4.4 4.9 4.9 4.2 3.7 4.0 4.2 4.2 4.7 4.5 5.5 4.6 3.5 3.5 4.9 8.8 11.5 8.9 9.0 8.6 6.1 7.1 6.5 6.9 7.1 6.4 5.5 4.9
4.8 3.8 3.0 2.6 2.6 2.9 3.1 3.1 3.4 3.6 5.0 4.7 5.5 5.8 5.2 5.1 4.9 5.0 6.5 7.2 7.7 5.9 5.1 4.3 4.3 5.5 7.2 8.8 10.0 8.0 6.8 7.1 8.1 9.4 10.6 10.1 6.4 4.5
5.0 5.1 4.0 3.5 3.9 4.0 4.3 4.8 4.8 5.2 5.6 6.2 6.7 7.1 7.6 7.3 7.0 6.3 7.1 8.4 8.4 6.7 6.5 5.9 6.9 8.2 8.2 7.0 6.6 8.4 8.7 8.9 9.6 10.3 12.0 14.0 11.0 5.7
5.1 4.9 4.3 4.3 4.6 4.7 4.9 5.6 6.0 5.7 6.3 7.6 8.2 8.9 9.7 9.2 8.5 8.2 8.3 8.4 8.0 7.4 6.9 7.2 9.6 14.2 14.7 10.1 6.6 7.2 11.1 11.9 10.9 11.0 12.0 14.5 16.3 9.9
4.3 4.9 5.2 5.0 5.2 5.4 5.7 6.2 6.2 6.3 7.2 7.6 8.4 9.8 10.9 11.6 10.9 9.7 8.8 9.2 9.5 8.6 7.6 6.8 8.5 13.2 18.3 15.6 11.9 8.9 8.2 13.2 15.4 15.7 13.5 11.2 9.1 5.8
4.9 5.3 5.8 6.0 6.3 6.5 6.6 6.9 7.5 7.8 7.8 9.1 9.6 10.3 11.6 13.2 12.4 10.7 10.5 9.9 10.8 11.0 10.1 7.7 7.0 8.6 13.3 16.1 14.3 10.1 9.7 8.5 11.4 17.9 17.9 16.7 13.8 11.7
5.0 5.5 5.7 6.3 6.8 7.3 7.7 7.9 8.3 8.1 8.6 9.5 10.1 10.6 11.3 13.1 13.5 12.2 11.9 11.8 10.9 10.6 10.1 8.5 8.2 9.6 12.4 15.6 12.8 9.0 9.0 8.5 8.2 8.0 10.7 15.4 24.7 26.4
6.1 6.1 6.1 6.5 6.8 7.5 8.2 8.4 8.6 8.4 8.7 10.1 11.2 11.5 12.0 12.6 12.4 12.9 12.9 12.5 12.5 11.8 11.2 10.6 9.1 9.2 9.8 10.5 11.1 9.7 8.8 8.7 8.7 9.5 11.0 10.4 9.2 11.0